Cosmos 1766 - Orbit

View from above orbital plane
View from above orbital plane
View from above satellite
View from above satellite

Ground track
Ground track

The orbit data is extracted from the following two-line orbital elements,

1 16881U 86055A   13138.83173286  .00003416  00000-0  25043-3 0  5922
2 16881 082.5131 035.0026 0014819 117.2801 242.9936 15.03146705456928
Epoch (UTC): 18 May 2013 19:57:41
Eccentricity: 0.0014819
inclination: 82.5131°
perigee height: 547 km
apogee height: 567 km
right ascension of ascending node: 35.0026°
argument of perigee: 117.2801°
revolutions per day: 15.03146705
mean anomaly at epoch: 242.9936°
orbit number at epoch: 45692

The dashed part of the orbit path shows where the satellite is in the earth's shadow,  

Developed and maintained by Chris Peat, Heavens-Above GmbH. Please read the updated FAQ before sending e-mail. Imprint. DLR